Zurück zum Katalog

FORGESTAR-1

AktivWissenschaftSSO
NORAD 64546·PAYLOAD·🇬🇧 United Kingdom

Gestartet Jun 23, 2025 von Vandenberg Space Force Base

Loading…

Nächste Überflüge (nächste 24 Stunden)

TLE

AktuellSource: Space-Track

Epoche: Sep 13, 2026, 19:50 UTC

1 64546U 25135U   26256.82649709  .00007192  00000-0  28620-3 0  9997
2 64546  97.4769  12.4076 0001155 129.9356 230.1984 15.25568205 68411

Verfolge FORGESTAR-1 in Echtzeit mit AllMySat

Download on the App Store